Weather History for Jackson Hawkins Field, MS

Change the Weather History Date:

Friday, November 16, 2012

  Actual Average (KJAN) Record (KJAN)
Temperature  
Mean Temperature 50 °F 56 °F  
Max Temperature 64 °F 67 °F 86 °F (1931)
Min Temperature 36 °F 44 °F 18 °F (1916)
Degree Days  
Heating Degree Days 15 10  
Month to date heating degree days 130  
Since 1 July heating degree days 237  
Cooling Degree Days 0 1  
Month to date cooling degree days 17  
Year to date cooling degree days 2248  
Moisture  
Dew Point 35 °F    
Average Humidity 62    
Maximum Humidity 97    
Minimum Humidity 25    
Precipitation  
Precipitation 0.00 in 0.16 in 2.21 in (1987)
Month to date precipitation 2.32  
Year to date precipitation 46.55  
Sea Level Pressure  
Sea Level Pressure 30.30 in    
Wind  
Wind Speed 3 mph (NNW)    
Max Wind Speed 9 mph    
Max Gust Speed -    
Visibility 9 miles    
Events      
T = Trace of Precipitation, MM = Missing Value Source: NWS Daily Summary

Daily Weather History Graph

Daily Weather History Graph

Search for Another Location

Airport:

Trip Planner

Search our weather history database for the weather conditions in past years. The results will help you decide how hot, cold, wet, or windy it might be!

Date:

Astronomy

Nov. 16, 2012 Rise Set
Actual Time 6:31 AM CST 4:59 PM CST
Civil Twilight 6:05 AM CST 5:25 PM CST
Nautical Twilight 5:35 AM CST 5:55 PM CST
Astronomical Twilight 5:06 AM CST 6:24 PM CST
Moon 9:23 AM CST (11/16) 8:01 PM CST (11/16)
Length of Visible Light 11h 20m
Length of Day
10h 28m
Waxing Crescent, 12% of the Moon is Illuminated
Nov 16
Waxing Crescent
Nov 20
First Quarter
Nov 28
Full
Dec 6
Last Quarter
Dec 13
New

Hourly Weather History & Observations

Time (CST) Temp. Windchill Dew Point Humidity Pressure Visibility Wind Dir Wind Speed Gust Speed Precip Events Conditions
12:53 AM 42.1 °F - 39.0 °F 89% 30.28 in 10.0 mi Calm Calm - N/A   Clear
1:53 AM 41.0 °F - 39.0 °F 93% 30.28 in 10.0 mi Calm Calm - N/A   Clear
2:53 AM 39.9 °F 36.7 °F 37.9 °F 93% 30.27 in 9.0 mi NW 4.6 mph - N/A   Clear
3:53 AM 39.0 °F 34.0 °F 37.0 °F 93% 30.28 in 8.0 mi NW 6.9 mph - N/A   Clear
4:53 AM 37.0 °F 33.3 °F 36.0 °F 96% 30.30 in 7.0 mi NW 4.6 mph - N/A   Clear
5:53 AM 37.0 °F - 35.1 °F 93% 30.30 in 7.0 mi Calm Calm - N/A   Clear
6:53 AM 36.0 °F 33.3 °F 35.1 °F 97% 30.32 in 5.0 mi NW 3.5 mph - N/A   Clear
7:53 AM 44.1 °F 42.5 °F 37.0 °F 76% 30.33 in 10.0 mi Variable 3.5 mph - N/A   Clear
8:53 AM 50.0 °F - 36.0 °F 59% 30.34 in 10.0 mi NNE 5.8 mph - N/A   Clear
9:53 AM 55.0 °F - 35.1 °F 47% 30.34 in 10.0 mi NE 5.8 mph - N/A   Clear
10:53 AM 59.0 °F - 33.1 °F 38% 30.33 in 10.0 mi ENE 8.1 mph - N/A   Clear
11:53 AM 62.1 °F - 30.9 °F 31% 30.31 in 10.0 mi NNE 9.2 mph - N/A   Clear
12:53 PM 63.0 °F - 32.0 °F 31% 30.29 in 10.0 mi NNW 4.6 mph - N/A   Clear
1:53 PM 64.0 °F - 30.0 °F 28% 30.27 in 10.0 mi Variable 5.8 mph - N/A   Clear
2:53 PM 64.9 °F - 28.0 °F 25% 30.26 in 10.0 mi North 8.1 mph - N/A   Clear
3:53 PM 64.0 °F - 30.0 °F 28% 30.27 in 10.0 mi North 8.1 mph - N/A   Clear
4:53 PM 60.1 °F - 30.0 °F 32% 30.27 in 10.0 mi North 3.5 mph - N/A   Clear
5:53 PM 55.0 °F - 36.0 °F 49% 30.29 in 10.0 mi NW 3.5 mph - N/A   Clear
6:53 PM 52.0 °F - 36.0 °F 54% 30.30 in 10.0 mi NNW 4.6 mph - N/A   Clear
7:53 PM 50.0 °F - 36.0 °F 59% 30.31 in 10.0 mi NNW 3.5 mph - N/A   Clear
8:53 PM 48.9 °F - 36.0 °F 61% 30.32 in 10.0 mi NNW 4.6 mph - N/A   Clear
9:53 PM 48.0 °F - 37.0 °F 66% 30.33 in 10.0 mi Calm Calm - N/A   Clear
10:53 PM 46.9 °F - 37.0 °F 68% 30.33 in 10.0 mi Calm Calm - N/A   Clear
11:53 PM 43.0 °F - 36.0 °F 76% 30.33 in 10.0 mi Calm Calm - N/A   Clear